Location: Unspecified
(19.0640°N, 0.0000°E)
Time: 06:37:45
(UTC+00:00)

CZ-4 DEB - Visible Passes

Search period start: 04 April 2026 00:00
Search period end: 14 April 2026 00:00
Orbit: 724 x 877 km, 98.7° (Epoch: 28 March)

Date Brightness Start Highest point End Pass type
(mag) Time Alt. Az. Time Alt. Az. Time Alt. Az.
4 Apr ? 20:48:16 25° NW 20:48:16 25° NW 20:50:23 10° NNW visible
5 Apr ? 20:21:17 33° N 20:21:17 33° N 20:23:57 10° N visible
6 Apr ? 19:54:17 28° NE 19:54:17 28° NE 19:57:00 10° N visible
7 Apr ? 19:27:18 17° NE 19:27:18 17° NE 19:29:21 10° NNE visible
7 Apr ? 21:08:13 18° NW 21:08:13 18° NW 21:09:42 10° NW visible
8 Apr ? 20:41:13 30° NNW 20:41:13 30° NNW 20:43:42 10° NNW visible
9 Apr ? 20:14:13 36° N 20:14:13 36° N 20:17:08 10° N visible
10 Apr ? 19:47:12 26° NE 19:47:12 26° NE 19:50:02 10° NNE visible
10 Apr ? 21:28:08 11° WNW 21:28:08 11° WNW 21:28:25 10° WNW visible
11 Apr ? 19:20:12 14° ENE 19:20:12 14° ENE 19:22:01 10° NE visible
11 Apr ? 21:01:07 22° NW 21:01:07 22° NW 21:03:07 10° NW visible
12 Apr ? 20:34:06 36° NNW 20:34:06 36° NNW 20:36:57 10° NNW visible
13 Apr ? 20:07:05 37° NNE 20:07:05 37° NNE 20:10:15 10° N visible
